[[[{"header":{"parameterUnit":"kt","parameterCategory":2,"dx":1,"dy":1,"la1":30.253999710083008,"la2":30.299108505249023,"lo1":-89.0895004272461,"lo2":-89.04439544677734,"nx":28,"ny":28,"refTime":"2022-09-25T21:00:00:Z","depth":0,"parameterNumber":1,"parameterNumberName":"U-component_of_WINDS"},"data":[-4.9989,-5.0195,-5.0179,-5.0407,-5.043,-5.0584,-5.0634,-5.0696,-5.0741,-5.0922,-5.1023,-5.1027,-5.1067,-5.1184,-5.1293,-5.1293,-5.1343,-5.1427,-5.1413,-5.1048,-5.0997,-5.0948,-5.09,-5.1436,-5.1437,-5.1796,-5.18,-5.1802,-4.9723,-4.9749,-4.9864,-4.9965,-5.0064,-4.9972,-5.0045,-5.0134,-5.0274,-5.0331,-5.0429,-5.0587,-5.0709,-5.072,-5.0835,-5.0932,-5.0898,-5.0965,-5.0961,-5.097,-5.0577,-5.0526,-5.0991,-5.0991,-5.0991,-5.0991,-5.0991,-5.0991,-4.9236,-4.9359,-4.9411,-4.9535,-4.9581,-4.9649,-4.9764,-4.9766,-4.9879,-4.9997,-4.9954,-5.0112,-5.0167,-5.0297,-5.0337,-5.046,-5.0383,-5.0452,-5.0471,-5.0491,-5.0517,-5.0009,-5.0478,-5.0476,-5.0475,-5.0474,-5.0473,0,-4.8875,-4.8853,-4.8962,-4.9067,-4.9156,-4.9236,-4.9306,-4.9376,-4.9324,-4.9419,-4.9556,-4.9632,-4.9782,-4.991,-5.0013,-5.004,-4.996,-4.9947,-4.9996,-5.0024,-5.0034,-5.0037,-4.9402,-4.9936,-4.9931,-4.9928,-4.9925,-4.9923,-4.8387,-4.8532,-4.8577,-4.8655,-4.8689,-4.8817,-4.889,-4.8832,-4.8912,-4.899,-4.9102,-4.9227,-4.9326,-4.9548,-4.9551,-4.9664,-4.9627,-4.9833,-4.9644,-4.9661,-4.9637,-4.9632,-4.9648,-4.9873,-4.988,-4.9885,-4.9889,0,-4.8115,-4.8087,-4.8305,-4.8335,-4.8347,-4.8502,-4.8528,-4.8648,-4.8636,-4.8802,-4.8837,-4.8821,-4.8956,-4.8925,-4.9073,-4.9053,-4.9312,-4.9269,-4.9293,-4.9285,-4.947,-4.9456,-5.0068,-5.0146,-4.9583,-4.9588,-4.9593,0,-4.7691,-4.7882,-4.7829,-4.7958,-4.8169,-4.8106,-4.8316,-4.8328,-4.8372,-4.8502,-4.8401,-4.8525,-4.8464,-4.8584,-4.8554,-4.8759,-4.8785,-4.8784,-4.8776,-4.8798,-4.8799,-4.8845,-4.8822,-4.8742,-4.8739,-4.8737,-4.8734,0,-4.7273,-4.7467,-4.7674,-4.7714,-4.7766,-4.7864,-4.7891,-4.794,-4.8012,-4.81,-4.8147,-4.8253,-4.8314,-4.8398,-4.8361,-4.8234,-4.8608,-4.8426,-4.8608,-4.861,-4.8698,-4.8695,-4.9238,-4.873,-4.8729,-4.8728,-4.8727,0,-4.6928,-4.7016,-4.7319,-4.736,-4.7414,-4.755,-4.7651,-4.776,-4.7819,-4.7809,-4.7878,-4.7809,-4.7981,-4.7804,-4.8042,-4.7888,-4.7954,-4.7967,-4.7979,-4.7999,-4.7803,-4.8122,-4.8636,-4.8692,-4.8009,-4.8003,-4.7997,0,-4.6459,-4.6757,-4.6705,-4.6994,-4.7127,-4.7006,-4.7156,-4.7211,-4.721,-4.7323,-4.7321,-4.7452,-4.7312,-4.7349,-4.747,-4.7475,-4.7674,-4.7446,-4.7618,-4.7625,-4.7612,-4.8083,-4.8171,-4.8525,-4.792,-4.7928,-4.7934,0,-4.6094,-4.6153,-4.6209,-4.6253,-4.6314,-4.6425,-4.6596,-4.671,-4.679,-4.686,-4.7006,-4.7185,-4.7089,-4.7151,-4.7106,-4.7234,-4.7538,-4.7114,-4.7115,-4.7197,-4.7876,-4.796,-4.8019,-4.7479,-4.7489,-4.7496,-4.7873,0,-4.5589,-4.5732,-4.5878,-4.5977,-4.6056,-4.6234,-4.62,-4.6288,-4.6237,-4.6232,-4.6441,-4.6479,-4.6598,-4.6654,-4.6606,-4.6907,-4.6854,-4.6749,-4.658,-4.6887,-4.7011,-4.7061,-4.6398,-4.6393,-4.6388,-4.6385,0,0,-4.5151,-4.5356,-4.5294,-4.5457,-4.5521,-4.5394,-4.5588,-4.5635,-4.5735,-4.5783,-4.5686,-4.5948,-4.5983,-4.6243,-4.6335,-4.6381,-4.6434,-4.6328,-4.674,-4.6779,-4.6816,-4.6949,-4.7001,-4.6377,-4.6375,-4.6374,-4.6372,0,-4.4961,-4.4995,-4.5186,-4.5232,-4.5297,-4.5281,-4.5327,-4.5371,-4.5377,-4.558,-4.5475,-4.5596,-4.5807,-4.586,-4.5915,-4.6294,-4.6211,-4.6331,-4.6549,-4.6696,-4.6742,-4.6782,-4.6922,-4.6972,-4.6361,-4.6362,-4.6363,0,-4.4599,-4.4629,-4.4717,-4.4853,-4.4895,-4.5035,-4.4847,-4.5001,-4.5105,-4.4961,-4.5166,-4.5183,-4.525,-4.5497,-4.5607,-4.5523,-4.6011,-4.5849,-4.5876,-4.5889,-4.603,-4.6085,-4.6134,-4.5493,-4.549,-4.5487,0,0,-4.444,-4.4571,-4.4587,-4.481,-4.4843,-4.4823,-4.4894,-4.485,-4.4912,-4.4937,-4.4958,-4.5023,-4.5144,-4.5226,-4.5338,-4.5613,-4.5625,-4.5743,-4.5784,-4.5818,-4.585,-4.6,-4.6054,-4.5477,-4.5476,-4.5476,0,0,-4.4364,-4.4391,-4.4328,-4.4581,-4.4643,-4.4674,-4.4813,-4.4737,-4.4834,-4.4811,-4.4746,-4.4761,-4.499,-4.5012,-4.487,-4.5278,-4.511,-4.5143,-4.5257,-4.5308,-4.5348,-4.5341,-4.4686,0,0,0,0,0,-4.4153,-4.4386,-4.4329,-4.4366,-4.454,-4.4706,-4.4727,-4.4679,-4.4561,-4.4671,-4.4677,-4.4581,-4.4922,-4.4794,-4.4834,-4.4995,-4.5336,-4.5361,-4.5384,-4.5595,-4.5649,-4.5695,0,0,0,0,0,0,-4.4167,-4.4213,-4.4323,-4.4365,-4.4403,-4.4697,-4.4486,-4.4479,-4.4548,-4.4526,-4.4583,-4.4583,-4.4546,-4.4771,-4.4807,-4.4962,-4.4674,-4.5346,-4.5367,-4.5386,-4.5614,-4.5658,-4.5696,0,0,0,0,0,-4.4178,-4.4215,-4.4505,-4.4361,-4.4395,-4.4385,-4.4477,-4.447,-4.4522,-4.4531,-4.4527,-4.4479,-4.4551,-4.4578,-4.4792,-4.4947,-4.4648,-4.4662,-4.5359,-4.5376,-4.5391,-4.5635,0,0,0,0,0,0,-4.4186,-4.421,-4.4511,-4.4519,-4.4269,-4.4368,-4.4381,-4.4462,-4.4521,-4.452,-4.4422,-4.4405,-4.4558,-4.4578,-4.4599,-4.4944,-4.4628,-4.4642,-4.465,-4.5372,-4.5385,-4.5397,0,0,0,0,0,0,-4.419,-4.4218,-4.4515,-4.4402,-4.4396,-4.4352,-4.4365,-4.4539,-4.4523,-4.4409,-4.4396,-4.4414,-4.4527,-4.4579,-4.4595,-4.4869,-4.4612,-4.4625,-4.4634,-4.464,-4.5383,-4.5393,0,0,0,0,0,0,-4.4201,-4.4225,-4.4399,-4.4395,-4.439,-4.4481,-4.4505,-4.4686,-4.4424,-4.4408,-4.4399,-4.4388,-4.4531,-4.4546,-4.4593,-4.4861,-4.4867,-4.4612,-4.4621,-4.4628,-4.4632,0,0,0,0,0,0,0,-4.421,-4.4059,-4.4461,-4.439,-4.4385,-4.4597,-4.4599,-4.4601,-4.4422,-4.4412,-4.4402,-4.4393,-4.4536,-4.4551,-4.4565,-4.4854,0,0,-4.4611,-4.4617,0,0,0,0,0,0,0,0,-4.4047,-4.4056,-4.4461,-4.4463,-4.4465,-4.4597,-4.4599,-4.4601,-4.442,-4.4412,-4.4404,-4.4396,-4.454,-4.4552,-4.4564,0,0,0,0,0,0,0,0,0,0,0,0,0,0,0,-4.4461,-4.4463,0,-4.4597,-4.4599,-4.46,-4.4419,-4.4412,-4.4406,-4.4399,-4.4543,-4.4553,-4.4563,0,0,0,0,0,0,0,0,0,0,0,0,0,0,0,0,0,0,0,0,0,0,0,0,0,0,0,0,0,0,0,0,0,0,0,0,0,0,0,0,0,0,0,0,0,0,0,0,0,0,0,0,0,0,0,0,0,0,0,0,0,0,0,0,0,0,0,0,0]}],[{"header":{"parameterUnit":"kt","parameterCategory":2,"dx":1,"dy":1,"la1":30.253999710083008,"la2":30.299108505249023,"lo1":-89.0895004272461,"lo2":-89.04439544677734,"nx":28,"ny":28,"refTime":"2022-09-25T21:00:00:Z","depth":0,"parameterNumber":2,"parameterNumberName":"V-component_of_WINDS"},"data":[-12.0199,-12.0369,-12.0345,-12.0526,-12.0535,-12.0653,-12.0687,-12.0728,-12.0754,-12.089,-12.0963,-12.0953,-12.0966,-12.1045,-12.112,-12.1113,-12.1146,-12.1224,-12.1202,-12.088,-12.0833,-12.0788,-12.0747,-12.1233,-12.1233,-12.154,-12.1543,-12.1545,-11.9964,-11.9976,-12.0066,-12.0136,-12.0211,-12.0122,-12.0168,-12.0236,-12.0344,-12.0377,-12.0447,-12.0563,-12.065,-12.0636,-12.0715,-12.079,-12.075,-12.0813,-12.0805,-12.0808,-12.0463,-12.042,-12.0843,-12.0843,-12.0843,-12.0843,-12.0843,-12.0843,-11.9529,-11.9632,-11.9661,-11.9757,-11.9785,-11.9831,-11.9923,-11.991,-11.9995,-12.0077,-12.0029,-12.0148,-12.0174,-12.0255,-12.0274,-12.0365,-12.029,-12.0349,-12.0363,-12.0379,-12.04,-11.9959,-12.0377,-12.0375,-12.0374,-12.0373,-12.0372,0,-11.9203,-11.9176,-11.926,-11.9337,-11.9405,-11.9462,-11.9509,-11.9565,-11.9494,-11.9567,-11.9669,-11.9723,-11.9829,-11.992,-11.9986,-11.9994,-11.9904,-11.9893,-11.9933,-11.9958,-11.9972,-11.9965,-11.9401,-11.988,-11.9876,-11.9873,-11.987,-11.9869,-11.8761,-11.8884,-11.8901,-11.8963,-11.8983,-11.9084,-11.9138,-11.9067,-11.9127,-11.9172,-11.9264,-11.9355,-11.9424,-11.9589,-11.9568,-11.9645,-11.9602,-11.9788,-11.9613,-11.9632,-11.9603,-11.9596,-11.9607,-11.9823,-11.9829,-11.9833,-11.9837,0,-11.8514,-11.8473,-11.8655,-11.8659,-11.8663,-11.8795,-11.8796,-11.8894,-11.8868,-11.8999,-11.9025,-11.8985,-11.9085,-11.9033,-11.9136,-11.9105,-11.9316,-11.9273,-11.9307,-11.9295,-11.9455,-11.944,-11.9986,-12.0052,-11.955,-11.9555,-11.9559,0,-11.8119,-11.8284,-11.8212,-11.832,-11.8499,-11.8423,-11.8601,-11.8596,-11.8618,-11.872,-11.8611,-11.8709,-11.8627,-11.8716,-11.8671,-11.8834,-11.8854,-11.8839,-11.8825,-11.8849,-11.885,-11.8876,-11.8853,-11.879,-11.8787,-11.8785,-11.8782,0,-11.7736,-11.789,-11.8065,-11.8093,-11.8112,-11.8195,-11.8207,-11.8229,-11.8282,-11.8342,-11.8375,-11.8451,-11.8491,-11.855,-11.8491,-11.8375,-11.869,-11.8517,-11.8675,-11.8677,-11.8746,-11.8742,-11.924,-11.8779,-11.8778,-11.8777,-11.8776,0,-11.741,-11.7476,-11.7737,-11.7749,-11.7792,-11.7907,-11.7976,-11.8063,-11.8094,-11.8073,-11.812,-11.804,-11.8179,-11.8011,-11.8201,-11.8065,-11.8111,-11.811,-11.812,-11.8127,-11.794,-11.8227,-11.8708,-11.8755,-11.8137,-11.8131,-11.8127,0,-11.6982,-11.7234,-11.7171,-11.7419,-11.7528,-11.7398,-11.7524,-11.7555,-11.7538,-11.7625,-11.7604,-11.7704,-11.7568,-11.7591,-11.7692,-11.7674,-11.7851,-11.7649,-11.7771,-11.7777,-11.7766,-11.8208,-11.8292,-11.8608,-11.8058,-11.8065,-11.807,0,-11.6644,-11.6667,-11.6717,-11.6744,-11.6775,-11.6865,-11.701,-11.7093,-11.7155,-11.7202,-11.7319,-11.7459,-11.736,-11.7401,-11.7343,-11.7451,-11.7729,-11.7331,-11.733,-11.7403,-11.8019,-11.8098,-11.8151,-11.7665,-11.7674,-11.768,-11.8015,0,-11.6159,-11.6279,-11.641,-11.6477,-11.6538,-11.6691,-11.6637,-11.6708,-11.6646,-11.6624,-11.6796,-11.6807,-11.6889,-11.6936,-11.6876,-11.7142,-11.7088,-11.6983,-11.6813,-11.7105,-11.7213,-11.7258,-11.6656,-11.665,-11.6646,-11.6642,0,0,-11.5758,-11.5929,-11.5855,-11.5993,-11.604,-11.5903,-11.6071,-11.61,-11.6162,-11.6196,-11.6102,-11.63,-11.6313,-11.6527,-11.6614,-11.6648,-11.6689,-11.6589,-11.6967,-11.7003,-11.7037,-11.7154,-11.7202,-11.6634,-11.6633,-11.6631,-11.663,0,-11.5569,-11.559,-11.5758,-11.5786,-11.5823,-11.5792,-11.5833,-11.5844,-11.5837,-11.6007,-11.5888,-11.5984,-11.6145,-11.6173,-11.6209,-11.6563,-11.6466,-11.6592,-11.6801,-11.6924,-11.6966,-11.7004,-11.7128,-11.7174,-11.6619,-11.662,-11.662,0,-11.5225,-11.5236,-11.5312,-11.5414,-11.5437,-11.5552,-11.5362,-11.5491,-11.5575,-11.5414,-11.5583,-11.5582,-11.5615,-11.5826,-11.5918,-11.5834,-11.6267,-11.6121,-11.6147,-11.6156,-11.6271,-11.6323,-11.6368,-11.5768,-11.5766,-11.5763,0,0,-11.5069,-11.5181,-11.5168,-11.5369,-11.5392,-11.5347,-11.5402,-11.5347,-11.5381,-11.5395,-11.5391,-11.5427,-11.5518,-11.558,-11.5664,-11.5903,-11.5903,-11.6018,-11.6058,-11.6091,-11.6118,-11.6243,-11.6293,-11.5753,-11.5753,-11.5752,0,0,-11.4993,-11.4987,-11.492,-11.5146,-11.5185,-11.5183,-11.5307,-11.5223,-11.5293,-11.5268,-11.5178,-11.5183,-11.5379,-11.5382,-11.5251,-11.5602,-11.5436,-11.5466,-11.5593,-11.5643,-11.5682,-11.5676,-11.5055,0,0,0,0,0,-11.4772,-11.4988,-11.4927,-11.4957,-11.5084,-11.5218,-11.5233,-11.5165,-11.5048,-11.5148,-11.513,-11.5023,-11.5292,-11.5174,-11.5204,-11.535,-11.562,-11.5644,-11.5666,-11.5886,-11.5939,-11.5983,0,0,0,0,0,0,-11.4783,-11.482,-11.4921,-11.4931,-11.4958,-11.5209,-11.4997,-11.4984,-11.5036,-11.5013,-11.503,-11.5024,-11.4967,-11.5154,-11.5182,-11.5322,-11.5045,-11.5629,-11.5649,-11.5667,-11.5904,-11.5947,-11.5984,0,0,0,0,0,-11.4791,-11.4821,-11.5044,-11.4927,-11.4951,-11.4912,-11.4988,-11.4976,-11.5014,-11.4988,-11.4978,-11.4958,-11.4973,-11.4991,-11.517,-11.5311,-11.5026,-11.5036,-11.5642,-11.5658,-11.5672,-11.5925,0,0,0,0,0,0,-11.4798,-11.4809,-11.5047,-11.5051,-11.484,-11.4896,-11.4902,-11.4969,-11.4983,-11.4977,-11.491,-11.4892,-11.4979,-11.4992,-11.5007,-11.5312,-11.501,-11.5021,-11.5027,-11.5654,-11.5667,-11.5678,0,0,0,0,0,0,-11.4793,-11.4815,-11.5049,-11.4944,-11.4935,-11.4882,-11.4888,-11.503,-11.4985,-11.4904,-11.489,-11.4902,-11.4956,-11.4995,-11.5005,-11.5229,-11.4997,-11.5008,-11.5015,-11.5019,-11.5664,-11.5674,0,0,0,0,0,0,-11.4801,-11.4819,-11.4942,-11.4936,-11.4928,-11.4975,-11.5005,-11.5139,-11.4898,-11.4906,-11.4874,-11.4863,-11.4962,-11.4971,-11.5005,-11.5225,-11.5228,-11.4998,-11.5005,-11.501,-11.5013,0,0,0,0,0,0,0,-11.4807,-11.4701,-11.502,-11.4929,-11.4922,-11.5095,-11.5096,-11.5097,-11.4896,-11.4886,-11.4877,-11.4868,-11.4939,-11.495,-11.4961,-11.5222,0,0,-11.4997,-11.5002,0,0,0,0,0,0,0,0,-11.4691,-11.4698,-11.502,-11.5021,-11.5022,-11.5095,-11.5096,-11.5097,-11.4894,-11.4886,-11.4879,-11.4872,-11.4942,-11.4951,-11.496,0,0,0,0,0,0,0,0,0,0,0,0,0,0,0,-11.502,-11.5021,0,-11.5095,-11.5096,-11.5097,-11.4893,-11.4887,-11.488,-11.4874,-11.4944,-11.4952,-11.4959,0,0,0,0,0,0,0,0,0,0,0,0,0,0,0,0,0,0,0,0,0,0,0,0,0,0,0,0,0,0,0,0,0,0,0,0,0,0,0,0,0,0,0,0,0,0,0,0,0,0,0,0,0,0,0,0,0,0,0,0,0,0,0,0,0,0,0,0,0]}]]]